Wind_Speed
11 11 11 10 10 9 8 8 8 7 7 7 7 8 8 9 9 8 9 9 9 9 9 10 10 11 11 11 12 12 12 12 11 11 11 10 10 9 9 8 8 8 7
11 11 10 10 10 11 10 10 10 10 9 9 10 10 11 11 11 10 11 10 10 10 10 10 11 11 11 12 12 12 13 13 12 12 12 11 10 10 9 8 8 7 5
11 11 10 10 11 12 12 12 12 12 12 12 13 13 13 13 13 13 13 12 12 11 11 11 11 11 11 12 12 13 12 13 12 12 12 11 11 10 9 8 7 6 4
13 12 12 12 12 13 14 15 15 14 15 15 15 15 15 15 15 15 15 14 14 14 13 12 12 12 12 12 12 12 12 12 12 12 12 11 11 10 9 8 7 5 4
13 13 14 13 14 16 16 17 17 17 17 17 17 17 17 17 18 18 17 17 16 15 15 14 13 13 12 12 12 12 12 12 12 11 11 10 10 9 8 7 5 5 4
16 15 16 17 16 17 19 19 19 20 20 20 19 19 19 19 20 20 20 19 18 17 16 15 14 14 13 12 12 12 12 12 11 11 10 9 9 8 8 7 5 4 4
19 19 20 20 20 20 21 21 21 22 22 22 22 21 22 21 22 22 21 21 20 19 18 17 16 14 13 12 12 11 11 11 11 10 9 9 8 8 7 6 6 5 4
22 23 23 24 24 25 25 25 25 25 25 25 26 26 25 24 24 23 24 23 22 20 19 19 17 16 14 13 12 12 11 11 10 9 9 9 8 7 7 6 6 5 5
23 24 24 25 25 26 27 28 28 29 29 29 29 28 27 27 27 26 25 25 24 23 21 20 20 18 16 15 14 13 12 11 10 10 9 9 8 7 6 6 6 6 6
23 24 24 24 25 26 27 29 29 30 31 32 32 31 30 29 29 29 29 27 26 25 24 23 22 21 19 17 15 14 13 12 11 10 9 9 8 8 7 7 6 7 7
22 22 23 24 24 25 26 28 29 31 32 33 34 33 33 32 31 30 30 29 28 27 25 25 24 23 21 20 18 16 15 14 13 11 10 10 9 9 9 8 7 8 8
20 20 21 22 22 23 24 25 26 28 30 32 34 34 34 34 32 32 31 30 30 28 28 27 26 25 24 22 21 19 17 16 15 13 12 11 10 10 10 9 8 8 9
17 18 19 20 20 21 22 22 23 24 26 29 31 33 34 34 34 33 33 31 31 30 29 28 27 26 26 24 23 21 20 18 17 15 14 13 12 11 11 11 10 9 10
17 17 17 18 18 19 19 20 20 22 22 24 27 29 31 32 33 33 33 31 31 30 30 29 28 26 26 25 24 23 22 20 19 17 16 15 14 12 12 12 11 11 11
16 16 17 17 17 18 18 18 19 19 20 21 23 25 27 29 30 31 32 32 32 31 30 31 30 28 26 25 24 23 24 23 21 19 18 17 15 14 13 13 13 13 12
15 16 16 17 17 17 17 17 17 18 18 19 20 21 23 25 27 27 29 30 31 31 30 30 30 29 27 26 26 25 24 25 24 22 20 19 18 16 15 14 14 14 14
15 16 16 17 17 17 17 17 17 17 17 17 17 18 20 21 23 25 26 27 29 30 29 28 28 28 27 26 26 26 26 26 26 24 23 22 20 19 17 17 16 16 15
16 16 17 17 17 17 17 17 16 16 16 15 15 15 16 17 19 21 23 25 26 28 29 28 28 27 27 26 26 27 26 27 27 27 26 24 23 21 20 19 19 18 18
16 17 17 18 18 18 17 17 16 15 15 14 13 13 13 15 16 18 20 22 24 26 27 28 28 28 28 28 27 28 28 28 28 29 28 27 25 23 22 21 21 20 20
16 17 18 18 18 18 17 17 17 15 14 14 13 12 12 13 14 16 17 19 21 24 26 27 28 28 28 28 28 29 29 29 29 30 30 29 28 26 25 24 23 22 22
16 18 18 19 18 18 18 18 18 17 16 14 13 12 12 12 13 15 16 17 19 21 24 26 27 28 28 28 29 29 30 30 30 30 30 30 29 28 28 26 25 24 24
16 18 19 19 19 19 18 19 18 17 16 15 14 13 13 12 12 13 15 16 18 20 22 25 27 27 28 28 29 30 30 31 31 31 31 31 30 30 29 29 28 27 26
16 18 19 20 20 19 19 19 19 19 18 17 16 14 13 12 12 12 13 14 16 18 20 23 25 27 28 28 28 29 30 31 31 31 32 32 32 31 31 31 30 29 28
16 18 19 20 20 20 20 20 20 19 19 18 17 15 14 13 12 11 12 13 14 15 17 19 22 24 26 26 27 29 29 30 31 32 33 34 33 33 33 33 32 31 30
16 17 19 20 20 20 20 20 20 20 19 19 18 16 15 13 12 11 10 10 11 13 14 16 18 21 23 25 26 28 29 29 31 32 33 35 35 34 34 35 34 34 33
15 17 19 20 20 20 21 20 20 20 20 20 19 17 15 14 12 11 9 9 8 9 11 12 14 18 20 23 24 26 27 28 31 32 33 34 35 35 35 35 35 36 35
Wind_Direction
300 303 298 287 281 275 273 268 268 266 263 258 254 251 249 247 247 248 254 256 256 256 261 264 266 268 270 273 277 281 284 285 285 286 289 292 297 301 303 309 314 322 332
299 300 302 292 282 276 275 272 269 267 264 261 258 256 254 251 250 251 255 256 257 259 262 265 266 267 270 272 274 277 279 282 282 284 285 287 291 294 296 302 308 314 322
297 294 296 291 282 276 274 272 270 268 264 263 262 259 257 257 257 257 256 256 258 260 263 266 269 268 270 271 272 275 276 278 279 282 282 284 286 287 290 294 299 303 309
294 291 290 284 279 278 275 274 271 268 267 268 264 262 260 259 259 259 258 258 258 260 262 265 269 269 269 271 272 274 277 277 277 278 279 281 282 281 283 287 289 289 290
293 290 288 282 277 277 278 275 272 270 270 270 267 263 262 260 259 258 258 259 258 259 261 263 266 268 268 269 270 271 274 275 275 277 277 279 279 277 277 280 278 276 270
290 288 287 284 279 278 278 273 270 270 270 269 267 265 262 260 259 258 257 257 257 257 258 260 263 264 266 267 266 266 269 272 273 274 275 276 277 275 274 270 267 263 248
285 285 283 284 279 275 272 269 271 271 271 269 267 265 262 262 259 257 257 257 255 256 256 258 260 261 262 263 263 263 265 267 270 270 270 272 273 272 271 264 255 246 232
286 283 281 279 277 275 272 271 270 269 268 267 265 264 263 261 259 257 257 257 255 253 254 256 258 259 258 257 258 259 261 262 265 264 264 267 268 268 265 251 241 232 226
290 288 286 282 278 276 272 271 269 268 265 264 263 262 261 261 258 257 257 256 255 253 253 255 254 255 255 253 253 253 254 256 258 259 261 262 261 259 253 241 233 225 220
294 292 288 284 280 276 272 270 268 266 265 263 262 261 261 258 257 256 255 254 255 254 253 254 253 251 251 249 248 249 248 248 251 253 256 256 253 250 245 233 228 218 212
299 296 293 289 286 282 279 275 271 267 265 263 262 260 260 259 257 255 255 255 254 252 252 253 252 249 250 249 245 245 243 243 245 247 250 251 249 246 244 232 225 216 207
305 302 299 295 291 287 284 281 277 272 268 265 263 261 259 257 256 255 253 253 252 250 250 251 250 248 249 247 244 241 240 240 241 242 245 246 245 244 242 231 224 215 208
315 312 307 301 298 294 290 286 283 278 273 268 264 262 259 257 256 255 253 250 250 250 249 250 251 248 248 248 243 241 240 239 239 240 241 241 241 242 241 228 223 217 210
326 322 318 312 307 303 299 294 289 285 280 274 267 264 260 257 255 255 253 250 249 249 248 248 248 249 248 245 242 241 239 240 239 239 239 238 238 238 236 228 224 218 214
333 331 327 322 318 313 309 305 300 293 287 280 273 267 261 258 256 254 253 252 250 248 248 248 246 246 245 242 242 242 238 238 238 237 237 237 236 234 231 229 224 218 218
340 337 335 331 328 323 317 311 307 302 295 287 280 272 264 259 256 254 252 250 249 248 246 246 245 244 244 244 241 239 237 235 236 236 235 236 234 232 230 229 226 221 220
350 349 347 343 339 333 327 320 314 309 304 296 288 278 268 262 257 254 252 249 245 244 244 244 243 242 242 243 242 238 236 235 235 235 235 235 233 231 230 228 226 224 223
0 358 355 353 348 343 338 332 325 320 315 308 298 287 275 266 261 256 253 249 245 243 242 241 241 240 240 240 239 236 236 236 233 232 232 232 232 231 230 229 228 227 225
6 4 1 360 357 353 350 346 341 336 329 322 313 301 285 272 265 261 256 251 245 241 241 239 240 239 238 238 237 236 236 235 232 231 231 231 232 231 230 230 229 228 226
10 7 6 5 4 1 358 356 352 347 341 334 325 315 299 284 273 266 260 254 249 244 240 238 238 238 238 237 237 237 236 234 233 232 231 231 231 232 230 230 229 227 225
13 11 10 8 6 4 1 358 355 352 348 343 334 324 312 297 282 271 264 258 252 247 242 239 238 238 238 237 237 237 237 233 234 233 231 230 231 231 230 230 231 228 226
14 12 11 9 6 4 1 360 358 355 351 346 340 331 320 306 294 282 271 263 255 250 246 241 237 237 236 236 236 237 237 235 235 234 232 231 232 232 231 231 231 230 228
13 11 10 8 7 5 2 0 359 356 353 348 344 339 331 318 305 294 282 270 261 254 248 243 239 237 237 236 236 236 235 234 234 234 232 233 232 233 232 231 231 230 228
12 10 9 9 7 6 4 3 2 360 357 355 352 347 340 332 319 306 293 281 270 260 252 247 244 240 239 237 237 236 235 234 233 232 232 232 232 232 232 233 232 230 230
11 11 10 9 7 7 7 5 5 3 2 1 359 354 350 344 333 321 308 297 280 266 258 252 248 244 241 239 238 237 236 235 233 232 232 232 232 232 233 233 232 232 232
12 11 10 9 9 9 9 9 9 7 6 5 4 1 359 356 351 341 328 315 295 276 266 258 253 247 242 239 239 238 238 237 233 233 233 233 232 233 234 234 232 232 232
Height
5876 5875 5875 5874 5874 5873 5873 5872 5872 5872 5872 5873 5873 5874 5874 5875 5875 5876 5877 5877 5878 5878 5879 5880 5880 5881 5881 5882 5882 5883 5883 5884 5884 5884 5884 5885 5885 5885 5885 5885 5884 5884 5883
5875 5874 5873 5872 5872 5871 5871 5871 5870 5870 5870 5870 5871 5871 5872 5873 5873 5874 5875 5875 5876 5876 5877 5877 5878 5879 5879 5880 5880 5881 5881 5882 5882 5882 5883 5883 5883 5884 5884 5884 5883 5883 5883
5872 5872 5871 5870 5870 5869 5869 5868 5868 5867 5867 5867 5868 5868 5869 5870 5871 5871 5872 5873 5873 5874 5874 5875 5876 5876 5877 5878 5878 5879 5879 5880 5880 5881 5881 5882 5882 5882 5882 5883 5882 5882 5882
5870 5869 5869 5868 5867 5867 5866 5866 5865 5865 5864 5864 5865 5865 5866 5867 5867 5868 5869 5870 5870 5871 5872 5872 5873 5874 5875 5875 5876 5876 5877 5878 5878 5879 5879 5880 5880 5881 5881 5881 5881 5881 5881
5868 5867 5866 5865 5865 5864 5863 5863 5862 5862 5861 5861 5861 5862 5862 5863 5864 5865 5866 5867 5867 5868 5869 5870 5871 5871 5872 5873 5873 5874 5875 5875 5876 5877 5877 5878 5878 5879 5879 5880 5880 5880 5881
5865 5864 5863 5862 5861 5861 5860 5859 5859 5858 5858 5858 5858 5858 5858 5859 5860 5861 5862 5863 5864 5865 5866 5867 5868 5869 5870 5870 5871 5872 5873 5873 5874 5875 5875 5876 5877 5877 5878 5878 5879 5879 5880
5862 5861 5859 5858 5857 5856 5856 5855 5854 5854 5854 5854 5854 5854 5854 5855 5856 5857 5858 5859 5860 5861 5863 5864 5865 5866 5867 5868 5868 5869 5870 5871 5872 5872 5873 5874 5875 5876 5876 5877 5878 5878 5879
5857 5856 5855 5854 5853 5852 5851 5850 5849 5849 5849 5849 5849 5849 5850 5850 5851 5852 5853 5854 5856 5857 5858 5860 5861 5863 5864 5865 5866 5867 5867 5868 5869 5870 5871 5872 5873 5874 5875 5875 5876 5877 5878
5852 5851 5850 5848 5847 5846 5845 5844 5844 5844 5844 5844 5843 5844 5844 5845 5846 5847 5848 5850 5851 5852 5854 5856 5857 5859 5860 5862 5863 5864 5865 5866 5867 5868 5869 5870 5871 5872 5873 5874 5875 5876 5877
5848 5846 5844 5842 5841 5840 5839 5838 5837 5837 5837 5837 5837 5837 5838 5839 5840 5841 5842 5844 5846 5848 5849 5851 5853 5854 5856 5858 5860 5861 5862 5863 5865 5866 5867 5868 5870 5870 5871 5872 5873 5875 5876
5843 5841 5839 5837 5835 5834 5832 5831 5830 5830 5829 5829 5830 5830 5831 5832 5833 5835 5836 5838 5840 5842 5844 5846 5848 5850 5852 5854 5856 5858 5859 5860 5862 5864 5865 5866 5868 5869 5870 5871 5872 5873 5874
5839 5836 5834 5832 5830 5828 5826 5825 5823 5822 5822 5822 5822 5823 5824 5825 5826 5828 5830 5832 5834 5836 5838 5840 5842 5845 5847 5849 5851 5853 5855 5857 5859 5861 5862 5864 5866 5867 5868 5869 5871 5872 5873
5835 5832 5829 5827 5825 5823 5821 5819 5817 5816 5815 5814 5814 5815 5816 5817 5819 5821 5823 5825 5827 5830 5832 5834 5836 5839 5842 5844 5846 5849 5851 5853 5856 5858 5860 5861 5863 5865 5866 5867 5869 5871 5872
5831 5828 5826 5823 5820 5818 5816 5813 5811 5810 5808 5807 5807 5807 5808 5810 5812 5813 5816 5818 5820 5823 5825 5828 5831 5833 5836 5839 5841 5844 5847 5849 5852 5854 5856 5858 5860 5862 5864 5865 5867 5869 5870
5828 5825 5822 5819 5816 5814 5811 5809 5806 5804 5803 5801 5801 5800 5801 5802 5804 5806 5808 5811 5813 5816 5819 5822 5824 5828 5830 5833 5836 5839 5842 5845 5848 5851 5853 5855 5857 5859 5861 5863 5865 5867 5869
5826 5823 5820 5816 5813 5810 5807 5804 5802 5800 5798 5796 5795 5794 5794 5795 5797 5799 5801 5803 5806 5809 5812 5815 5818 5821 5824 5827 5831 5834 5837 5840 5843 5846 5849 5852 5854 5856 5858 5861 5862 5864 5867
5824 5821 5817 5814 5810 5807 5804 5800 5798 5795 5793 5791 5790 5789 5789 5789 5791 5792 5794 5797 5799 5802 5805 5809 5812 5815 5818 5821 5825 5828 5831 5835 5838 5841 5844 5847 5850 5853 5855 5857 5860 5862 5864
5823 5819 5816 5812 5808 5805 5801 5797 5794 5791 5789 5787 5785 5784 5784 5784 5785 5786 5788 5790 5792 5795 5799 5802 5805 5809 5812 5815 5819 5822 5825 5829 5832 5836 5839 5842 5845 5848 5851 5854 5856 5859 5861
5822 5818 5815 5811 5807 5803 5799 5795 5792 5789 5786 5784 5782 5781 5780 5780 5781 5781 5782 5784 5786 5789 5792 5795 5799 5802 5806 5809 5813 5816 5819 5823 5826 5830 5834 5837 5841 5844 5847 5850 5852 5855 5858
5821 5818 5814 5810 5806 5802 5798 5795 5791 5788 5785 5782 5780 5778 5777 5777 5777 5777 5778 5779 5780 5783 5786 5789 5792 5795 5799 5803 5806 5810 5813 5817 5820 5824 5828 5832 5835 5839 5842 5845 5848 5851 5854
5821 5817 5813 5810 5806 5802 5798 5794 5790 5787 5784 5781 5778 5776 5775 5774 5773 5773 5773 5774 5775 5777 5780 5782 5786 5789 5793 5796 5800 5804 5807 5811 5815 5818 5822 5825 5829 5833 5836 5840 5843 5846 5849
5821 5817 5813 5809 5805 5802 5798 5794 5790 5786 5783 5780 5777 5774 5772 5771 5770 5769 5769 5769 5770 5772 5774 5776 5779 5783 5786 5790 5793 5797 5801 5805 5809 5812 5816 5819 5823 5827 5831 5834 5838 5841 5845
5821 5817 5813 5809 5805 5801 5797 5793 5789 5786 5782 5778 5775 5772 5770 5768 5766 5765 5765 5765 5766 5767 5768 5771 5773 5777 5780 5783 5787 5791 5794 5798 5802 5805 5809 5813 5817 5821 5825 5828 5832 5835 5839
5820 5817 5813 5809 5805 5801 5797 5793 5789 5785 5781 5777 5774 5770 5768 5765 5763 5762 5761 5761 5761 5762 5763 5765 5768 5770 5774 5777 5780 5784 5788 5791 5794 5799 5803 5806 5810 5814 5818 5822 5826 5829 5833
5820 5817 5813 5809 5805 5801 5797 5793 5789 5785 5781 5777 5773 5769 5766 5763 5761 5759 5758 5757 5757 5757 5759 5760 5762 5765 5767 5771 5774 5777 5780 5784 5787 5791 5795 5799 5803 5807 5811 5815 5819 5823 5827
5820 5817 5813 5810 5806 5801 5797 5793 5789 5785 5781 5777 5773 5769 5765 5762 5760 5757 5756 5754 5754 5754 5755 5756 5758 5760 5762 5765 5768 5771 5773 5776 5780 5784 5787 5791 5796 5800 5804 5808 5812 5815 5819